Location: Launay
(47.2429°N, 1.5727°E)
Time: 21:14:50
(UTC+00:00)

Cosmos 1315 Rocket - Pass Details

Date: 19 May 2025
Orbit: 498 x 525 km, 81.2° (Epoch: 18 June)

Event Time Altitude Azimuth Distance (km) Brightness Sun altitude
Exits shadow 22:29:58 17° 238° (WSW) 1,378 4.7 -20.4°
Maximum altitude 22:32:14 30° 289° (WNW) 976 4.4 -20.5°
Drops below altitude 10° 22:35:42 10° 351° (N) 1,775 6.6 -20.7°
Sets 22:38:03 0° 3° (N) 2,665 7.6 -20.8°
